www.pogodaiklimat.ru

Погода и климат >> Архив погоды >> Индия >> Карнатака >> Карвар


ПОГОДА в Карваре

  • Прогноз погоды в Карваре
  • Монитор погоды в Карваре

АРХИВ ПОГОДЫ в Карваре

Время (UTC), дата Ветер
(напр.,м/с)
 
Видим.   Явления Облачность Т
(С)
Тd
(С)
f
(%)
Тe
(С)
Тes
(С)
Комфортность P
(гПа)
Po
(гПа)
Тmin
(С)
Tmax
(С)
R
(мм)
R24
(мм)
S
(см)
03 19.04 штиль 0 10 км 1/1 600 м
[Cu hum]
+27.6 +21.0 67 +35 +42 очень
душно
1011.7 1011.2 +23.1 +37.2
06 19.04 СЗ 1 10 км ясно +33.6 +24.9 60 +47 +71 опасность
перегрева
1011.0 1010.5
09 19.04 СЗ 3 10 км ясно +35.6 +25.6 56 +50 +64 опасность
перегрева
1008.6 1008.1
12 19.04 С 2 10 км ясно +33.4 +25.2 62 +47 +50 опасность
перегрева
1007.9 1007.4 +35.7
03 20.04 СЗ 1 10 км 1/1 600 м
[Cu hum]
+27.6 +24.1 81 +38 +45 очень
душно
1009.1 1008.6 +26.0 +35.7
06 20.04 СЗ 2 10 км ясно +34.4 +24.5 56 +47 +67 опасность
перегрева
1008.9 1008.4
09 20.04 З 2 10 км ясно +37.0 +26.2 54 +53 +71 опасность
перегрева
1007.8 1007.3
12 20.04 СЗ 1 10 км 1/1 600 м
[Cu hum]
+33.8 +24.8 59 +47 +49 опасность
перегрева
1006.2 1005.7 +37.2
03 21.04 штиль 0 10 км ясно +28.6 +24.6 79 +41 +49 опасность
перегрева
1009.1 1008.6 +24.7 +37.2
06 21.04 СЗ 2 10 км 4/4 600 м
[Sc]
+34.2 +24.3 56 +46 +60 опасность
перегрева
1010.2 1009.7
09 21.04 СЗ 2 10 км ясно +35.0 +23.9 53 +47 +65 опасность
перегрева
1007.8 1007.3
12 21.04 СЗ 1 10 км ясно +33.8 +24.1 57 +46 +49 опасность
перегрева
1006.8 1006.3 +35.8
03 22.04 ЮЗ 1 10 км 1/1
[Cb calv]
+27.8 +22.8 74 +37 +44 очень
душно
1008.8 1008.3 +26.5 +35.8
06 22.04 СЗ 2 10 км ясно +34.6 +25.0 58 +48 +71 опасность
перегрева
1008.8 1008.3
09 22.04 СЗ 3 10 км ясно +37.0 +26.5 55 +53 +69 опасность
перегрева
1007.1 1006.6
12 22.04 СЗ 3 10 км ясно +31.6 +25.1 69 +46 +48 опасность
перегрева
1005.4 1004.9 +37.2
03 23.04 штиль 0 10 км 6/4 600 м
[Sc Ac trans Ci fib]
+28.6 +24.6 79 +41 +45 опасность
перегрева
1009.8 1009.3 +26.1 +37.2
06 23.04 ЮЗ 1 10 км 1/1 600 м
[Sc]
+32.6 +25.9 68 +48 +70 опасность
перегрева
1009.8 1009.3
09 23.04 ЮЗ 2 10 км 3/3 600 м
[Sc diur, vesp]
+35.2 +27.0 63 +53 +65 опасность
перегрева
1008.0 1007.5
12 23.04 ЮЗ 2 10 км 8/4 600 м
[St Ac trans Ci fib]
+33.4 +25.2 62 +47 +48 опасность
перегрева
1007.6 1007.1 +36.6
03 24.04 штиль 0 10 км 4/4 600 м
[Sc]
+28.4 +24.9 81 +41 +45 опасность
перегрева
1010.8 1010.3 +26.5 +36.6
06 24.04 СЗ 1 10 км 1/1 600 м
[Cu hum]
+34.2 +26.1 63 +50 +72 опасность
перегрева
1010.8 1010.3
09 24.04 З 2 10 км 4/4 600 м
[Sc]
+35.8 +27.3 62 +55 +66 опасность
перегрева
1008.7 1008.2
12 24.04 С 3 10 км 3/3 600 м
[Sc]
+32.0 +26.7 74 +49 +51 опасность
перегрева
1007.1 1006.6 +36.4
03 25.04 нст 1 10 км 6/5 600 м
[Sc Ac trans]
+29.2 +25.2 79 +42 +46 опасность
перегрева
1011.0 1010.5 +25.6 +36.4
06 25.04 СЗ 1 10 км 1/1 600 м
[Sc]
+34.2 +26.1 63 +50 +72 опасность
перегрева
1010.6 1010.1
09 25.04 СЗ 2 10 км ясно +36.2 +26.3 57 +52 +71 опасность
перегрева
1008.5 1008.0
12 25.04 СЗ 2 10 км ясно +33.8 +25.4 62 +48 +51 опасность
перегрева
1007.7 1007.2 +36.5

 

Местоположение метеостанции Карвар (Карнатака, Индия): широта 14.78 долгота 74.13 высота над уровнем моря 4 м.

В архиве по умолчанию представлена погода в Карваре за последнюю неделю. Архивные данные за месяц целиком и за предыдущие месяцы, начиная с января 2011 года, Вы можете получить, выбрав интересующий диапазон дат из раскрывающегося списка и нажав кнопку "Ввод!".


*Определитесь, кто Вы:
робот инопланетянин человек

Внимание! Время в таблицах - всемирное. Для получения местного времени необходимо прибавить поправку, которая равна 5.5 ч.

Смотрите также архив погоды в соседних городах и на ближайших метеорологических станциях:

Погода в Хоннаваре (Карнатака, Индия) (65 км)
Погода в Мормугао (Гоа, Индия) (80 км)
Погода в Панаджи (Гоа, Индия) (85 км)
Погода в Ширали (Карнатака, Индия) (90 км)
Погода в Дхарваде (Карнатака, Индия) (120 км)
Погода в Белгауме (Карнатака, Индия) (127 км)
Погода в Белгаум аэропорту (Карнатака, Индия) (130 км)
Погода в Венгерле (Махараштра, Индия) (133 км)
Погода в Хавери (Карнатака, Индия) (137 км)
Погода на Агамбе (Карнатака, Индия) (175 км)

Пояснения к столбцам:

Ветер - указаны скорость ветра в м/с - средняя за 10 мин, порывы в срок и между сроками (в фигурных скобках) и направление, откуда дует ветер: С - северный, СВ - северо-восточный, В - восточный, ЮВ - юго-восточный, Ю - южный, ЮЗ - юго-западный, З - западный, СЗ - северо-западный.
Видимость - горизонтальная дальность видимости в метрах или километрах. При видимости от 1 до 10 км при отсутствии осадков обычно наблюдается дымка, при ухудшении видимости до 1 км и менее - туман. В сухую погоду видимость может ухудшаться дымом, пылью или мглою.
Явления - указаны атмосферные явления, наблюдавшиеся в срок или в последний час перед сроком; фигурными скобками обозначены явления, наблюдавшиеся между сроками (за 1-3 часа до срока); квадратными скобками обозначены град или гололедные отложения с указанием их диаметра в мм.
Облачность - указаны через наклонную черту общая и нижняя облачность в баллах и высота нижней границы облаков в метрах; квадратными скобками обозначены формы облаков: Ci - перистые, Cs - перисто-слоистые, Cc - перисто-кучевые, Ac - высококучевые, As - высокослоистые, Sc - слоисто-кучевые, Ns - слоисто-дождевые, Cu - кучевые, Cb - кучево-дождевые. Подробнее классификацию облаков см. в Атласе облаков (PDF).
T - Температура воздуха - температура, измеренная на высоте 2 м над землей.
Td - Температура точки росы - температура, при понижении до которой содержащийся в воздухе водяной пар достигнет насыщения.
f - Относительная влажность воздуха - влажноcть воздуха, измеренная на высоте 2 м над землей.
Te - Эффективная температура - температура, которую ощущает одетый по сезону человек в тени. Характеристика душности погоды. При расчете учитывается влияние влажности воздуха и скорости ветра на теплоощущения человека.
Tes - Эффективная температура на солнце - температура, которую ощущает человек, с поправкой на солнечный нагрев. Характеристика знойности погоды. Зависит от высоты солнца над горизонтом, облачности и скорости ветра. Ночью, в пасмурную погоду, а также при ветре 12 м/с и более поправка равна нулю.
P - Атмосферное давление - приведенное к уровню моря атмосферное давление.
Po - Атмосферное давление - измеренное на уровне метеостанции атмосферное давление.
Tmin - Минимальная температура - минимум температуры воздуха на высоте 2 м над землей.
Tmax - Максимальная температура - максимум температуры воздуха на высоте 2 м над землей.
R - Количество осадков - Количество выпавших осадков за период времени, мм. При наведении курсора мыши на число - период времени, за который выпало указанное количество осадков.
R24 - Количество осадков - Количество выпавших осадков за 24 часа, мм.
S - Снежный покров - Высота снежного покрова, см. При наведении курсора мыши на число - состояние снежного покрова и степень покрытия местности в баллах.